GFSFLT2_500_spd_153.txt.gz
Wind_Speed
18 20 22 24 24 24 24 24 25 25 25 25 24 23 22 22 23 23 23 24 23 23 24 23 23 24 25 25 24 24 24 27
17 19 21 22 22 22 23 23 25 24 23 22 22 22 23 24 25 26 27 28 27 31 31 28 29 28 28 29 28 25 27 27
18 19 20 21 22 22 22 23 24 23 22 23 23 24 26 27 30 31 32 34 36 37 39 40 37 34 35 36 35 35 35 33
21 21 23 23 23 24 25 25 26 27 28 29 29 31 32 34 36 38 39 41 42 43 44 43 43 41 41 42 43 43 41 40
23 25 26 26 27 28 30 29 31 33 34 35 36 37 39 39 40 42 43 43 43 43 44 44 42 43 44 44 45 47 47 47
26 27 29 30 30 32 33 33 34 36 37 38 39 39 40 40 40 40 40 41 41 40 40 41 43 42 41 42 43 43 45 46
30 31 33 34 34 35 34 33 34 36 36 37 39 40 40 41 42 42 42 40 40 40 39 40 40 41 42 42 43 43 42 43
32 32 32 33 34 33 31 31 34 35 36 37 38 40 41 42 43 43 43 44 43 44 43 43 44 44 43 43 44 44 43 42
32 32 34 35 36 35 32 34 36 39 41 43 44 44 44 45 46 47 47 48 49 50 51 50 50 48 49 48 46 46 46 46
34 36 37 38 40 42 42 43 45 47 47 47 48 48 49 51 53 53 54 54 54 54 52 53 52 54 55 54 51 49 47 47
36 37 40 43 44 46 48 50 51 53 53 53 53 53 54 57 60 62 63 64 65 65 64 58 56 54 54 56 56 55 51 50
41 42 43 45 48 50 52 54 55 55 57 57 57 58 59 61 64 67 69 72 71 67 62 62 58 52 47 49 52 58 60 55
45 46 48 50 51 51 52 56 57 57 56 58 60 61 62 63 65 63 61 61 60 56 48 48 49 47 46 48 56 56 58 60
48 50 53 54 55 56 58 59 59 62 59 60 60 61 61 59 57 53 50 48 44 41 40 43 48 50 53 55 56 58 59 59
53 53 55 57 57 58 60 61 60 61 64 64 58 55 53 54 51 47 43 40 38 39 39 42 43 45 46 48 48 48 49 55
53 53 55 57 59 60 60 60 60 61 59 55 54 54 53 48 43 41 42 47 44 41 42 43 42 40 40 40 41 44 44 42
55 56 57 57 57 57 58 59 59 55 52 50 49 46 46 46 46 45 43 41 41 41 40 47 46 42 38 36 34 33 33 33
55 57 57 56 54 54 53 54 54 51 51 48 46 42 50 53 52 49 48 46 49 49 45 49 46 44 41 35 29 32 37 37
55 53 54 54 52 54 54 50 50 51 51 48 48 55 60 59 53 48 49 53 47 47 48 47 46 43 43 39 36 36 40 41
45 46 49 50 51 52 48 51 48 51 49 58 61 63 60 58 53 52 48 48 46 44 47 45 48 46 47 44 43 39 38 43

GFSFLT2_500_spd_159.txt.gz
Wind_Speed
19 19 18 16 16 16 16 16 17 18 19 20 19 18 18 17 17 17 18 19 21 23 25 27 28 29 28 29 29 28 24 25
21 21 20 18 17 17 17 17 19 19 19 20 19 19 19 20 21 21 22 24 27 28 30 32 33 34 35 34 33 32 29 30
23 21 21 19 19 19 19 20 20 20 20 21 22 22 23 23 25 25 27 28 29 30 32 33 33 34 33 34 34 33 32 31
25 23 23 22 21 21 22 23 25 25 26 26 26 26 27 27 29 28 29 29 29 30 32 35 35 35 35 34 36 36 35 34
26 25 24 24 24 24 25 27 29 30 31 30 29 29 28 29 28 29 29 30 31 32 34 36 38 38 37 35 35 36 36 35
26 26 25 26 26 26 28 29 30 31 33 33 31 31 30 30 30 29 31 32 34 36 38 39 40 39 39 40 40 40 40 40
26 26 26 27 27 28 28 29 29 31 33 34 33 33 33 34 34 35 37 38 39 39 39 40 42 43 44 44 44 44 44 44
27 27 28 29 30 29 31 32 32 33 34 35 35 36 36 38 39 41 43 43 43 44 44 45 46 47 47 49 51 50 48 48
28 28 29 30 31 33 34 35 35 35 35 36 37 39 41 42 44 45 46 45 45 48 51 50 50 51 52 53 54 55 54 52
30 30 31 32 33 34 35 36 37 38 39 39 40 42 44 46 48 49 50 51 52 54 54 54 56 56 58 57 57 58 60 59
32 32 32 34 36 37 39 40 41 42 43 44 45 44 46 49 52 53 55 55 57 59 59 59 60 62 64 65 61 61 61 55
35 35 35 38 41 43 44 45 45 46 47 48 50 50 52 53 55 57 58 58 59 60 62 61 62 62 65 62 61 60 54 50
37 38 41 44 46 47 49 50 51 50 51 53 55 56 58 59 58 59 60 60 58 59 59 62 64 64 59 54 47 48 45 46
42 44 46 48 50 51 53 54 55 54 55 57 57 58 60 61 63 59 58 59 58 56 52 50 49 46 48 45 43 46 47 51
47 48 50 51 52 55 55 56 58 58 58 60 60 60 60 61 59 59 55 55 53 53 48 40 41 41 43 46 48 52 55 54
51 53 52 53 55 57 58 59 61 59 60 61 60 61 61 59 55 55 53 50 48 45 41 41 43 45 46 51 53 52 50 53
51 54 56 56 58 59 60 60 60 60 61 59 57 55 55 53 53 51 49 48 38 37 41 44 45 48 53 53 52 52 58 58
54 54 57 58 59 60 60 59 59 58 56 55 52 51 52 53 52 51 45 46 43 43 45 47 47 47 49 53 54 51 56 57
59 58 57 56 56 56 57 56 56 55 54 50 46 49 54 55 50 45 47 48 46 46 43 45 47 50 52 51 53 51 52 54
56 55 54 55 56 57 56 55 53 52 45 44 50 51 52 45 49 48 49 48 49 45 47 49 50 48 44 45 49 51 51 44

GFSFLT2_500_spd_165.txt.gz
Wind_Speed
25 22 20 20 18 15 14 13 13 11 7 6 8 10 11 12 13 14 14 13 13 14 14 14 15 15 14 15 16 17 19 20
25 23 20 20 20 16 14 14 11 11 8 7 9 10 13 15 15 16 16 16 15 14 15 15 15 16 17 19 20 21 21 23
26 24 21 19 20 18 15 16 13 12 10 10 10 12 15 15 15 16 16 16 16 16 16 16 17 20 21 24 25 24 23 23
27 26 23 20 20 19 16 17 17 15 12 13 14 13 15 17 16 17 17 18 18 18 19 21 23 25 25 24 25 24 24 24
28 28 24 22 22 20 18 19 19 17 16 15 15 16 17 18 19 20 20 21 22 23 23 24 25 26 27 27 27 27 27 26
28 28 26 23 22 22 22 20 21 21 18 18 18 20 21 21 21 23 23 24 26 28 30 30 31 32 33 34 33 32 31 31
28 29 28 24 23 25 24 23 24 22 20 21 22 23 25 26 26 26 27 28 30 32 34 35 36 37 38 38 38 37 37 37
29 30 28 26 26 27 27 25 25 24 24 24 25 27 29 29 30 31 32 34 36 37 37 38 39 39 40 41 42 42 42 43
31 31 29 28 28 29 28 28 28 28 28 28 30 30 31 32 34 37 39 40 41 41 41 42 42 43 44 45 45 47 47 47
30 30 29 30 30 30 31 31 31 31 30 32 34 35 36 38 40 42 43 44 45 46 47 46 46 47 48 48 50 50 50 51
27 30 31 31 30 32 33 34 34 34 36 37 39 40 41 42 42 44 45 46 48 49 49 50 50 52 52 53 52 53 54 54
28 30 32 32 33 36 36 37 39 39 42 44 46 47 46 47 47 48 49 50 50 52 53 53 54 55 55 55 55 54 56 58
29 32 34 35 37 39 40 42 41 44 47 50 51 51 52 53 53 53 55 55 56 57 59 58 57 56 56 57 55 58 58 59
35 33 36 38 40 43 46 44 45 48 52 54 54 55 56 56 56 56 56 59 60 61 61 60 58 56 55 57 57 55 54 50
34 35 38 41 43 46 46 45 49 54 57 56 56 58 60 59 60 59 61 63 63 62 61 60 57 56 53 51 48 45 45 43
38 38 38 42 44 45 46 48 52 56 55 57 59 60 62 62 63 64 65 64 64 62 59 57 54 46 45 38 37 39 41 44
39 40 41 43 46 47 49 52 56 56 58 59 61 62 64 65 66 66 64 63 61 57 56 51 45 35 33 35 38 41 45 46
39 43 47 50 50 48 50 54 55 56 58 61 64 66 67 67 66 65 64 60 58 55 48 48 42 31 38 41 43 42 44 45
41 43 46 47 49 48 52 53 54 56 58 61 62 63 63 63 63 63 61 57 53 46 45 54 37 38 38 42 43 46 49 50
49 50 52 54 55 55 54 54 54 55 57 59 59 60 60 60 61 60 58 53 48 48 49 52 47 40 43 45 48 49 52 55

GFSFLT2_500_spd_168.txt.gz
Wind_Speed
26 25 22 21 20 20 16 14 15 16 15 14 12 9 8 7 7 7 8 8 9 9 10 9 8 7 7 10 12 16 19 19
24 25 24 22 21 22 19 15 15 16 16 14 14 12 11 9 8 9 10 10 11 12 11 10 10 9 9 12 16 19 20 20
25 25 25 23 21 21 20 17 16 17 17 16 16 15 12 11 11 12 13 14 13 15 14 14 15 13 15 17 21 23 22 23
25 25 26 24 23 23 21 19 18 19 19 19 18 16 15 13 14 14 15 16 17 18 18 18 19 19 20 20 21 22 21 22
28 26 27 25 24 24 22 22 20 21 21 21 20 18 17 15 17 19 18 18 20 21 22 23 23 25 26 25 27 26 26 27
26 28 28 27 26 25 25 26 23 23 22 23 22 20 18 18 20 21 20 22 23 24 25 26 27 29 30 31 31 32 33 34
27 28 28 29 27 26 26 27 26 24 24 24 23 22 21 22 24 25 26 26 26 27 29 31 32 33 35 36 36 36 37 38
30 28 28 28 27 27 27 28 29 27 27 26 25 25 25 26 26 27 28 29 31 33 35 36 37 37 38 39 40 41 41 41
31 31 27 27 25 27 27 28 30 30 28 28 28 27 27 28 29 30 32 34 37 39 40 40 41 42 42 43 43 45 45 46
31 29 29 26 26 27 28 29 30 30 30 31 31 31 31 32 33 35 37 39 41 43 44 44 45 46 47 46 48 49 50 51
26 31 32 29 29 30 29 30 31 32 33 33 35 37 38 38 38 41 42 44 45 45 46 48 49 49 51 52 52 52 53 53
26 31 34 33 33 33 33 34 34 35 36 38 39 41 42 41 43 45 47 47 47 48 49 51 52 53 56 56 56 56 54 54
27 34 35 36 37 38 37 38 39 39 39 40 43 45 46 46 49 50 51 50 50 52 54 56 56 59 59 58 57 57 56 56
25 34 36 38 40 41 41 41 41 41 42 45 48 49 50 51 52 54 54 54 55 56 59 60 62 62 62 59 59 56 57 58
28 31 36 37 39 42 43 43 42 45 48 51 51 51 53 55 55 56 57 57 59 61 63 64 64 63 61 59 58 56 54 53
27 33 37 41 41 43 45 45 47 50 51 51 53 55 56 57 58 59 60 62 63 64 64 63 62 61 59 57 53 44 43 41
40 38 41 44 47 47 47 48 50 51 54 57 59 59 58 60 61 63 63 63 63 63 63 62 61 61 58 53 47 46 43 43
45 46 44 45 50 51 50 53 55 58 58 58 59 61 63 63 64 64 64 63 63 62 61 60 59 54 52 47 52 43 38 35
48 48 51 54 53 53 53 54 55 54 58 60 63 62 61 62 62 62 63 62 62 61 59 59 54 49 46 47 40 48 39 45
55 54 55 56 58 56 54 53 54 56 57 58 60 61 61 60 60 61 62 61 60 61 58 52 51 46 49 48 49 51 41 42